Home   Weather   Orlando   Past weeks

Flag for USA Past Weather in Orlando, Florida, USA — Yesterday and Last 2 Weeks

Now
76 °F

Passing clouds.


Feels Like: 76 °F
Forecast: 72 / 86 °F
Wind: 12 mph from East

Location: Orlando Executive Airport

Current Time: Sep 30, 2016 at 9:34:47 PM

Latest Report: Sep 30, 2016 at 8:53 PM


Visibility: 10 mi

Pressure: 30.03 "Hg

Humidity: 91%

Dew Point: 73 °F

Location of OrlandoLocation

Past Weather in Orlando — Graph

°F

Orlando Temperature Yesterday

Maximum temperature yesterday: 87 °F (at 12:53 PM)
Minimum temperature yesterday: 74 °F (at 2:53 AM)
Average temperature yesterday: 79 °F

High & Low Weather Summary for the Past Weeks

 TemperatureHumidityPressure
High92 °F (Sep 18, 4:53 PM)97% (Sep 24, 4:53 AM)30.09 "Hg (Sep 24, 4:53 AM)
Low71 °F (Sep 27, 6:53 AM)47% (Sep 18, 5:53 PM)29.89 "Hg (Sep 27, 3:53 PM)
Average81 °F78%30.00 "Hg
* Reported Sep 15 7:53 PM — Sep 30 7:53 PM, Orlando, Weather by CustomWeather, © 2016

Note: Actual official high and low records may vary slightly from our data, if they occured in-between our weather recording intervals... More about our weather records

Advertising

Orlando Weather History for the Previous 24 Hours

Scroll right to see more
 ConditionsComfort  
Time TempWeatherWind HumidityBarometerVisibility
7:53 PM
Fri, Sep 30
77 °FPassing clouds.5 mph82%30.00 "Hg10 mi
6:53 PM76 °FThundershowers. Scattered clouds.No wind85%29.98 "Hg10 mi
5:53 PM83 °FThunderstorms. Overcast.7 mph74%29.98 "Hg5 mi
4:53 PM88 °FBroken clouds.6 mph59%29.95 "Hg10 mi
3:53 PM90 °FSunny.12 mph56%29.96 "Hg10 mi
2:53 PM90 °FPassing clouds.5 mph56%29.98 "Hg10 mi
1:53 PM87 °FScattered clouds.9 mph61%30.02 "Hg10 mi
12:53 PM87 °FPassing clouds.5 mph63%30.04 "Hg10 mi
11:53 AM86 °FPassing clouds.8 mph67%30.05 "Hg10 mi
10:53 AM83 °FPartly sunny.8 mph74%30.06 "Hg10 mi
9:53 AM81 °FScattered clouds.8 mph82%30.06 "Hg10 mi
8:53 AM78 °FSunny.No wind87%30.03 "Hg10 mi
7:53 AM75 °FSunny.6 mph94%30.03 "Hg10 mi
6:53 AM75 °FClear.3 mph90%30.02 "Hg10 mi
5:53 AM75 °FClear.7 mph90%30.00 "Hg10 mi
4:53 AM74 °FClear.7 mph91%29.99 "Hg10 mi
3:53 AM74 °FClear.7 mph91%29.99 "Hg10 mi
2:53 AM74 °FClear.7 mph94%30.01 "Hg10 mi
1:53 AM74 °FClear.6 mph91%30.03 "Hg10 mi
12:53 AM75 °FClear.7 mph88%30.05 "Hg10 mi
11:53 PM
Thu, Sep 29
76 °FClear.8 mph85%30.07 "Hg10 mi
10:53 PM76 °FClear.7 mph85%30.06 "Hg10 mi
9:53 PM77 °FPassing clouds.7 mph79%30.04 "Hg10 mi
Weather by CustomWeather, © 2016

See weather overviewHow to use our weather pages